Starlink 32396

operational
NORAD ID: 61633 Int'l Des: 2024-191 Owner: SPXS Country: US Constellation: starlink
LEOCIRCULAR

Über Starlink 32396

Beschreibung wird geladen...

Live-Position

3D-Globus wird geladen...

Nächste Überflüge

Höhenverlauf

Altitude vs Time

uPlot chart will show altitude changes over time

Zweizeiliger Elementsatz

1 61633U 24191N 25259.16581659 .00000319 00000-0 21120-4 0 9993
2 61633 43.0008 63.7251 0000524 303.8626 56.2175 15.27569574 50809
Epoch: 16. Sept. 2025 • Age: 9 hours

Aktueller Status

Höhe 489.9 km
Geschwindigkeit 7.62 km/s
Subsatellitenpunkt -27.88°S, 166.64°W
Startdatum 23. Okt. 2024
Alter 0.8 years
Typ internet

Technische Details

Klassifizierung Payload
Masse 730.00 kg
Trockenmasse 700.00 kg
Gesamtmasse 730.00 kg
Länge 0.30 m
Durchmesser 4.10 m
Spannweite 29.00 m
Form Box + pan
Hersteller SPXS
Bus-Typ Starlink V2M
Phasenstatus In Orbit
Besitzer/Staat SPXS/US

Große Konstellationen

Loading constellations...